TimePDT,TemperatureF,Dew PointF,Humidity,Sea Level PressureIn,VisibilityMPH,Wind Direction,Wind SpeedMPH,Gust SpeedMPH,PrecipitationIn,Events,Conditions,WindDirDegrees,DateUTC
12:53 AM,50.0,46.9,89,30.18,-9999.0,Calm,Calm,-,N/A,,Overcast,0,2012-10-27 07:53:00
1:53 AM,50.0,46.9,89,30.17,-9999.0,Calm,Calm,-,N/A,,Overcast,0,2012-10-27 08:53:00
2:53 AM,51.1,48.0,89,30.18,-9999.0,Calm,Calm,-,N/A,,Overcast,0,2012-10-27 09:53:00
3:53 AM,51.1,46.9,86,30.17,-9999.0,Calm,Calm,-,N/A,,Overcast,0,2012-10-27 10:53:00
4:53 AM,51.1,48.0,89,30.16,-9999.0,Calm,Calm,-,0.00,,Overcast,0,2012-10-27 11:53:00
5:53 AM,51.1,48.0,89,30.17,-9999.0,Calm,Calm,-,N/A,,Overcast,0,2012-10-27 12:53:00
6:53 AM,51.1,48.9,92,30.16,-9999.0,Calm,Calm,-,0.01,Rain,Light Rain,0,2012-10-27 13:53:00
7:33 AM,50.0,48.2,94,30.15,-9999.0,Calm,Calm,-,0.01,Rain,Light Rain,0,2012-10-27 14:33:00
7:53 AM,50.0,48.9,96,30.15,-9999.0,SSE,4.6,-,0.01,Rain,Light Rain,150,2012-10-27 14:53:00
8:53 AM,51.1,50.0,96,30.15,-9999.0,Calm,Calm,-,0.00,,Overcast,0,2012-10-27 15:53:00
9:53 AM,52.0,50.0,93,30.14,-9999.0,Calm,Calm,-,0.00,,Overcast,0,2012-10-27 16:53:00
11:53 AM,55.0,52.0,89,30.14,-9999.0,Calm,Calm,-,0.02,,Overcast,0,2012-10-27 18:53:00
12:53 PM,55.9,54.0,93,30.12,-9999.0,Calm,Calm,-,0.02,,Overcast,0,2012-10-27 19:53:00
1:31 PM,57.2,53.6,88,30.11,-9999.0,Calm,Calm,-,0.00,Rain,Light Rain,0,2012-10-27 20:31:00
1:53 PM,57.9,55.0,90,30.11,8.0,Calm,Calm,-,0.00,,Overcast,0,2012-10-27 20:53:00
2:01 PM,57.2,55.4,94,30.10,7.0,Calm,Calm,-,N/A,,Overcast,0,2012-10-27 21:01:00
2:08 PM,59.0,55.4,88,30.10,10.0,SSE,4.6,-,N/A,,Overcast,160,2012-10-27 21:08:00
2:53 PM,59.0,55.0,87,30.09,10.0,SE,4.6,-,N/A,,Overcast,130,2012-10-27 21:53:00
3:53 PM,60.1,55.9,86,30.07,10.0,Calm,Calm,-,N/A,,Overcast,0,2012-10-27 22:53:00
4:53 PM,60.1,55.9,86,30.08,10.0,Calm,Calm,-,N/A,,Overcast,0,2012-10-27 23:53:00
5:53 PM,60.1,55.9,86,30.07,10.0,South,3.5,-,N/A,,Overcast,190,2012-10-28 00:53:00
6:38 PM,59.0,55.4,88,30.07,10.0,SE,3.5,-,N/A,,Overcast,130,2012-10-28 01:38:00
6:53 PM,59.0,55.0,87,30.08,10.0,Calm,Calm,-,N/A,,Overcast,0,2012-10-28 01:53:00
7:53 PM,57.9,55.0,90,30.08,10.0,SSE,5.8,-,N/A,,Overcast,150,2012-10-28 02:53:00
9:53 PM,57.9,55.0,90,30.08,10.0,Calm,Calm,-,N/A,,Overcast,0,2012-10-28 04:53:00
10:53 PM,59.0,54.0,83,30.08,10.0,Calm,Calm,-,N/A,,Overcast,0,2012-10-28 05:53:00
11:53 PM,57.9,55.0,90,30.07,10.0,Calm,Calm,-,N/A,,Overcast,0,2012-10-28 06:53:00